Burlington, NC

8:53 PM EDT on July 20, 2017 (GMT -0400)
Burlington-Alamance Regional

Weather History for KBUY - June, 2013

Change the Weather History Date:

Tuesday, June 11, 2013

  Actual Average Record
Temperature  
Mean Temperature 76 °F -  
Max Temperature 84 °F 86 °F 99 °F (1993)
Min Temperature 69 °F 61 °F 46 °F (1972)
Cooling Degree Days 12    
Growing Degree Days 26 (Base 50)    
Moisture  
Dew Point 65 °F    
Average Humidity 75    
Maximum Humidity 94    
Minimum Humidity 46    
Precipitation  
Precipitation 0.01 in - - ()
Sea Level Pressure  
Sea Level Pressure 29.93 in    
Wind  
Wind Speed 6 mph (SW)    
Max Wind Speed 14 mph    
Max Gust Speed 18 mph    
Visibility 10 miles    
Events      
Averages and records for this station are not official NWS values.
T = Trace of Precipitation, MM = Missing Value Source: NWS Daily Summary

Daily Weather History Graph

Daily Weather History Graph

Search for Another Location

Airport or City:

Trip Planner

Search our weather history database for the weather conditions in past years. The results will help you decide how hot, cold, wet, or windy it might be!

Date:

Astronomy

Jun. 11, 2013 Rise Set
Actual Time 6:00 AM EDT 8:34 PM EDT
Civil Twilight 5:30 AM EDT 9:05 PM EDT
Nautical Twilight 4:52 AM EDT 9:42 PM EDT
Astronomical Twilight 4:11 AM EDT 10:24 PM EDT
Moon 8:38 AM EDT (6/11) 10:41 PM EDT (6/11)
Length of Visible Light 15h 34m
Length of Day
14h 34m
Waxing Crescent, 8% of the Moon is Illuminated
Jun 11
Waxing Crescent
Jun 16
First Quarter
Jun 23
Full
Jun 30
Last Quarter
Jul 8
New

Hourly Weather History & Observations

Time (EDT) Temp. Heat Index Dew Point Humidity Pressure Visibility Wind Dir Wind Speed Gust Speed Precip Events Conditions
12:39 AM 69.8 °F - 68.0 °F 94% 29.95 in 10.0 mi South 4.6 mph - N/A   Mostly Cloudy
12:54 AM 70.0 °F - 68.0 °F 93% 29.93 in 10.0 mi South 4.6 mph - N/A   Overcast
1:03 AM 69.8 °F - 68.0 °F 94% 29.95 in 10.0 mi South 4.6 mph - N/A   Overcast
1:54 AM 70.0 °F - 68.0 °F 93% 29.91 in 10.0 mi South 3.5 mph - N/A   Overcast
2:54 AM 70.0 °F - 66.9 °F 90% 29.91 in 10.0 mi Variable 3.5 mph - N/A   Overcast
3:54 AM 70.0 °F - 66.9 °F 90% 29.91 in 10.0 mi SW 9.2 mph - N/A   Overcast
4:05 AM 69.8 °F - 66.2 °F 88% 29.93 in 10.0 mi SW 5.8 mph - N/A   Mostly Cloudy
4:54 AM 70.0 °F - 66.9 °F 90% 29.91 in 10.0 mi SW 6.9 mph - 0.01 in   Overcast
5:04 AM 69.8 °F - 66.2 °F 88% 29.93 in 10.0 mi SW 5.8 mph - N/A   Overcast
5:36 AM 69.8 °F - 66.2 °F 88% 29.91 in 10.0 mi South 4.6 mph - N/A   Mostly Cloudy
5:54 AM 69.1 °F - 66.9 °F 93% 29.91 in 10.0 mi SSW 4.6 mph - N/A   Mostly Cloudy
6:38 AM 69.8 °F - 66.2 °F 88% 29.92 in 8.0 mi SSW 5.8 mph - N/A   Partly Cloudy
6:54 AM 69.1 °F - 66.9 °F 93% 29.92 in 8.0 mi SW 8.1 mph - N/A   Mostly Cloudy
7:44 AM 71.6 °F - 66.2 °F 83% 29.95 in 10.0 mi SW 9.2 mph - N/A   Mostly Cloudy
7:54 AM 71.1 °F - 66.9 °F 87% 29.94 in 10.0 mi WSW 10.4 mph - N/A   Overcast
8:41 AM 73.4 °F - 68.0 °F 83% 29.96 in 10.0 mi WSW 10.4 mph - N/A   Scattered Clouds
8:54 AM 73.9 °F - 66.9 °F 79% 29.95 in 10.0 mi West 9.2 mph - N/A   Partly Cloudy
9:54 AM 77.0 °F - 66.0 °F 69% 29.94 in 10.0 mi SW 10.4 mph - N/A   Clear
10:54 AM 80.1 °F 81.5 °F 63.0 °F 56% 29.94 in 10.0 mi West 13.8 mph - N/A   Clear
11:54 AM 81.0 °F 82.2 °F 63.0 °F 54% 29.96 in 10.0 mi WNW 11.5 mph - N/A   Scattered Clouds
12:54 PM 82.0 °F 83.0 °F 62.1 °F 51% 29.94 in 10.0 mi WNW 9.2 mph 18.4 mph N/A   Clear
1:54 PM 82.9 °F 84.0 °F 63.0 °F 51% 29.93 in 10.0 mi WSW 11.5 mph - N/A   Scattered Clouds
2:54 PM 84.0 °F 84.9 °F 63.0 °F 49% 29.93 in 10.0 mi West 10.4 mph - N/A   Mostly Cloudy
3:54 PM 84.9 °F 85.4 °F 62.1 °F 46% 29.93 in 10.0 mi West 12.7 mph - N/A   Scattered Clouds
4:54 PM 84.0 °F 84.5 °F 62.1 °F 47% 29.92 in 10.0 mi West 12.7 mph - N/A   Scattered Clouds
5:54 PM 84.0 °F 84.5 °F 62.1 °F 47% 29.90 in 10.0 mi West 9.2 mph - N/A   Clear
6:54 PM 82.9 °F 84.4 °F 64.0 °F 53% 29.90 in 10.0 mi WSW 8.1 mph - N/A   Clear
7:54 PM 80.1 °F 81.9 °F 64.9 °F 60% 29.91 in 10.0 mi SW 4.6 mph - N/A   Clear
8:54 PM 75.9 °F - 64.9 °F 69% 29.91 in 10.0 mi Calm Calm - N/A   Clear
9:54 PM 73.0 °F - 64.9 °F 76% 29.93 in 10.0 mi SSW 3.5 mph - N/A   Clear
10:54 PM 72.0 °F - 64.9 °F 78% 29.96 in 10.0 mi Calm Calm - N/A   Clear
11:54 PM 69.1 °F - 64.9 °F 87% 29.96 in 9.0 mi SSW 3.5 mph - N/A   Clear